Location: Bamazo
(6.7448°N, 10.8189°W)
Time: 02:56:31
(UTC+00:00)

ARIANE 5 R/B - Pass Details

Date: 18 September 2020
Orbit: 286 x 34065 km, 2.0° (Epoch: 23 October)

Event Time Altitude Azimuth Distance (km) Brightness Sun altitude
Rises 12:08:37 0° 269° (W) 14,131 8.9 81.2°
Reaches altitude 10° 12:19:26 10° 268° (W) 15,720 9.3 83.2°
Drops below altitude 10° 17:48:35 10° 267° (W) 36,661 14.4 12.2°
Enters shadow 21:15:24 48° 208° (SSW) 1,817 4.3 -39.0°
